カタログに戻る

STARLINK-32594

運用中通信VLEO
NORAD 62302·PAYLOAD·🇺🇸 United States

打ち上げ Dec 13, 2024 から Vandenberg Space Force Base

Loading…

次のパス (今後24時間)

TLE

最新Source: CelesTrak SupGP

元期: Sep 14, 2026, 22:30 UTC

1 62302C 24239B   26257.93798611  .00007043  00000+0  20790-3 0  2570
2 62302  53.1587  29.3973 0001608  72.7246 295.5741 15.34413247    18

AllMySatでSTARLINK-32594をリアルタイム追跡

Download on the App Store